This demonstration page uses our WeatherBlox Daily Observations layout. Learn more.

Left ArrowRight Arrow

40.92945, -100.16068

Hourly Observations for August 10, 2020

Temp ( °F °C ) Dew Point ( °F °C ) Humidity (%) Winds ( mph kmh ) Pressure ( in mb ) Visibility ( mi km ) Precip ( " mm )
12:15 am 00:15 Clear 72 22.4 69 20.6 90 90 N N/A 29.79 1009 10 16 N/A
12:35 am 00:35 Clear 71 21.9 69 20.5 92 92 N N/A 29.80 1009 10 16 N/A
12:55 am 00:55 Clear 71 21.5 69 20.4 93 93 SW 3 6 29.81 1009 10 16 N/A
1:15 am 01:15 Clear 69 20.6 67 19.7 95 95 SSW 5 7 29.83 1010 10 16 N/A
1:35 am 01:35 Clear 68 20.2 67 19.5 96 96 N N/A 29.84 1011 10 16 N/A
1:55 am 01:55 Clear 67 19.5 66 18.9 96 96 WNW 6 9 29.84 1010 10 16 N/A
2:15 am 02:15 Clear 68 19.8 67 19.4 98 98 N N/A 29.83 1010 10 16 N/A
2:35 am 02:35 Clear with Mist and Fog 67 19.4 66 19 98 98 NW 6 9 29.84 1010 5 8 N/A
2:55 am 02:55 Clear with Mist and Fog 69 20.5 68 20.2 98 98 NNW 9 15 29.84 1010 5 8 N/A
3:15 am 03:15 Clear 68 20.1 67 19.5 96 96 WNW 5 7 29.85 1011 10 16 N/A
3:35 am 03:35 Clear 67 19.5 66 18.8 96 96 NW 3 6 29.87 1011 10 16 N/A
3:55 am 03:55 Clear 68 19.9 66 19.1 95 95 NNW 5 7 29.86 1011 10 16 N/A
4:15 am 04:15 Clear 67 19.3 66 18.8 97 97 NNW 7 11 29.87 1011 10 16 N/A
4:35 am 04:35 Clear 66 19.1 65 18.6 97 97 NW 6 9 29.87 1012 10 16 N/A
4:55 am 04:55 Clear 67 19.6 66 19.1 97 97 N 9 15 29.86 1011 10 16 N/A
5:15 am 05:15 Clear 67 19.7 66 19 96 96 WNW 5 7 29.85 1011 10 16 N/A
5:35 am 05:35 Clear 66 18.9 65 18.3 96 96 WNW 6 9 29.86 1011 7 11 N/A
5:55 am 05:55 Clear 65 18.1 64 17.7 98 98 NNW 5 7 29.87 1011 7 11 N/A
6:15 am 06:15 Clear 65 18.5 64 17.7 95 95 NNE 3 6 29.88 1012 10 16 N/A
6:35 am 06:35 Clear 65 18.4 64 17.5 95 95 N N/A 29.89 1012 10 16 N/A
6:55 am 06:55 Sunny 64 18 63 17 94 94 N 5 7 29.90 1013 10 16 N/A
7:15 am 07:15 Sunny 64 18 63 17 94 94 NNE 6 9 29.92 1013 10 16 N/A
7:35 am 07:35 Sunny 65 18.5 62 16.9 90 90 N 13 20 29.95 1014 10 16 N/A
7:55 am 07:55 Sunny 66 18.7 62 16.8 89 89 NNE 16 26 29.94 1014 10 16 N/A
8:15 am 08:15 Sunny 66 19 62 16.6 86 86 NNE 20 31 29.94 1014 10 16 N/A
8:35 am 08:35 Sunny 67 19.6 62 16.5 82 82 ENE 15 24 29.98 1015 10 16 N/A
8:55 am 08:55 Partly Cloudy 68 20 61 16.2 79 79 ENE 18 30 29.97 1015 10 16 N/A
9:15 am 09:15 Partly Cloudy 69 20.3 61 16.3 78 78 ENE 18 30 29.97 1015 10 16 N/A
9:35 am 09:35 Partly Cloudy 70 21.1 61 16.1 73 73 ENE 16 26 29.97 1015 10 16 N/A
9:55 am 09:55 Sunny 71 21.7 60 15.4 68 68 ENE 15 24 29.97 1015 10 16 N/A
10:15 am 10:15 Sunny 73 22.7 59 15.2 63 63 E 16 26 29.96 1015 10 16 N/A
10:35 am 10:35 Sunny 74 23.1 59 15 60 60 ENE 16 26 29.95 1014 10 16 N/A
10:55 am 10:55 Sunny 75 23.9 59 15.2 58 58 ENE 18 30 29.94 1014 10 16 N/A
11:15 am 11:15 Sunny 76 24.2 59 15.2 57 57 ENE 18 30 29.94 1014 10 16 N/A
11:35 am 11:35 Sunny 77 24.8 59 14.9 54 54 ENE 20 31 29.93 1014 7 11 N/A
11:55 am 11:55 Sunny 76 24.5 59 14.8 55 55 ENE 18 30 29.93 1014 10 16 N/A
12:15 pm 12:15 Hazy 77 24.8 60 15.4 56 56 ENE 15 24 29.93 1014 2 2 N/A
12:35 pm 12:35 Hazy 78 25.5 60 15.5 54 54 E 14 22 29.92 1013 5 8 N/A
12:55 pm 12:55 Partly Cloudy 78 25.6 60 15.4 53 53 E 14 22 29.91 1013 7 11 N/A
1:15 pm 13:15 Partly Cloudy 79 25.9 60 15.4 52 52 E 10 17 29.91 1013 7 11 N/A
1:35 pm 13:35 Partly Cloudy 80 26.9 60 15.6 50 50 E 15 24 29.89 1012 7 11 N/A
1:55 pm 13:55 Partly Cloudy 81 27.2 60 15.7 49 49 E 14 22 29.89 1012 7 11 N/A
2:15 pm 14:15 Partly Cloudy 82 27.5 61 16.2 50 50 E 13 20 29.90 1012 7 11 N/A
2:35 pm 14:35 Sunny 82 27.6 60 15.7 48 48 E 14 22 29.89 1012 10 16 N/A
2:55 pm 14:55 Sunny 82 27.9 60 15.4 47 47 E 14 22 29.89 1012 10 16 N/A
3:15 pm 15:15 Sunny 83 28.3 61 16.2 48 48 E 13 20 29.87 1012 10 16 N/A
3:35 pm 15:35 Sunny 83 28.5 62 16.4 48 48 ESE 15 24 29.87 1012 10 16 N/A
3:55 pm 15:55 Hazy 83 28.3 61 16.3 48 48 ESE 15 24 29.86 1011 5 8 N/A
4:15 pm 16:15 Hazy 83 28.3 62 16.6 49 49 E 14 22 29.86 1011 3 4 N/A
4:35 pm 16:35 Hazy 82 28 63 17 51 51 E 12 19 29.87 1011 2 3 N/A
4:55 pm 16:55 Partly Cloudy 82 27.7 63 17.1 52 52 E 9 15 29.87 1011 10 16 N/A
5:15 pm 17:15 Partly Cloudy 83 28.1 63 17.4 52 52 ENE 13 20 29.85 1011 10 16 N/A
5:35 pm 17:35 Partly Cloudy 83 28.3 63 17 50 50 E 12 19 29.84 1011 10 16 N/A
5:55 pm 17:55 Partly Cloudy 82 28 63 17.4 53 53 E 13 20 29.84 1010 10 16 N/A
6:15 pm 18:15 Partly Cloudy 82 28 64 17.6 53 53 ENE 9 15 29.84 1010 10 16 N/A
6:35 pm 18:35 Partly Cloudy 81 27 64 17.6 56 56 E 13 20 29.83 1010 10 16 N/A
6:55 pm 18:55 Sunny 81 27.2 64 17.7 56 56 ENE 9 15 29.84 1011 10 16 N/A
7:15 pm 19:15 Sunny 80 26.8 64 17.6 57 57 E 9 15 29.85 1011 10 16 N/A
7:35 pm 19:35 Sunny 79 26.2 64 17.8 60 60 ENE 9 15 29.85 1011 10 16 N/A
7:55 pm 19:55 Sunny 78 25.6 64 17.7 62 62 ENE 8 13 29.85 1011 10 16 N/A
8:15 pm 20:15 Sunny 76 24.7 64 17.8 66 66 E 8 13 29.86 1011 10 16 N/A
8:35 pm 20:35 Sunny 75 24.1 64 17.6 67 67 E 9 15 29.87 1011 10 16 N/A
8:55 pm 20:55 Clear 73 22.8 64 18 74 74 ENE 6 9 29.88 1012 10 16 N/A
9:15 pm 21:15 Clear 71 21.5 65 18.1 81 81 ENE 5 7 29.89 1012 10 16 N/A
9:35 pm 21:35 Clear 70 21.2 64 17.7 81 81 E 7 11 29.91 1013 10 16 N/A
9:55 pm 21:55 Clear 69 20.5 64 17.5 83 83 ENE 7 11 29.92 1013 10 16 N/A
10:15 pm 22:15 Partly Cloudy 69 20.5 63 17.3 82 82 E 8 13 29.94 1014 10 16 N/A
10:35 pm 22:35 Partly Cloudy 68 20.1 63 17.1 83 83 E 8 13 29.94 1014 10 16 N/A
10:55 pm 22:55 Clear 68 19.9 63 17.2 85 85 ENE 5 7 29.95 1014 10 16 N/A
11:15 pm 23:15 Clear 68 19.9 63 17 83 83 E 8 13 29.95 1014 10 16 N/A
11:35 pm 23:35 Clear 69 20.5 62 16.8 79 79 E 6 9 29.95 1014 10 16 N/A
11:55 pm 23:55 Clear 68 20.2 62 16.8 81 81 E 6 9 29.95 1014 10 16 N/A

Powered by AerisWeather